Location: Helensbirgh
(56.0153°N, 4.7348°W)
Time: 01:21:18
(UTC+00:00)

Envisat - Pass Details

Date: 19 October 2019
Orbit: 764 x 766 km, 98.1° (Epoch: 13 November)

Event Time Altitude Azimuth Distance (km) Brightness Sun altitude
Rises 19:09:03 0° 166° (SSE) 3,225 6.1 -9.0°
Reaches altitude 10° 19:11:21 10° 167° (SSE) 2,302 5.4 -9.4°
Maximum altitude 19:16:26 80° 255° (WSW) 786 3.2 -10.1°
Drops below altitude 10° 19:21:33 10° 343° (NNW) 2,318 5.7 -10.8°
Sets 19:23:53 0° 344° (NNW) 3,248 6.4 -11.1°
